EW0690 Weather Reports


time (UTC)temp
F
wind
direction
speed
knots
gust
knots
rain 1hr
in
rain 24hr
in
rain mn
in
humidity
%
barometer
mb
20260506204503 62 181 0.0 2.6 0.00 0.00 0.00 60 1010.8
20260506203001 62 195 0.9 4.3 0.00 0.00 0.00 59 1010.8
20260506201501 63 249 1.7 6.1 0.00 0.00 0.00 58 1010.7
20260506200112 63 193 3.5 8.7 0.00 0.00 0.00 57 1010.4
20260506194601 63 194 4.3 8.7 0.00 0.00 0.00 56 1010.2
20260506193112 63 163 7.0 11.3 0.00 0.00 0.00 55 1010.1
20260506191559 63 186 5.2 9.6 0.00 0.00 0.00 55 1009.8
20260506190059 63 188 6.1 10.4 0.00 0.00 0.00 56 1009.6
20260506184557 64 193 7.8 13.0 0.00 0.00 0.00 55 1009.5
20260506183101 64 160 6.1 11.3 0.00 0.00 0.00 57 1009.3
20260506181615 65 187 4.3 8.7 0.00 0.00 0.00 58 1009.2
20260506180054 65 190 6.1 9.6 0.00 0.00 0.00 61 1009.0
20260506174551 65 185 4.3 8.7 0.00 0.00 0.00 62 1009.1
20260506173120 65 148 2.6 5.2 0.00 0.00 0.00 65 1008.9
20260506171555 66 179 1.7 3.5 0.00 0.00 0.00 66 1008.7
20260506170057 66 193 1.7 8.7 0.00 0.00 0.00 67 1008.6
20260506164548 66 152 3.5 6.1 0.00 0.00 0.00 70 1008.6
20260506163046 66 145 2.6 6.1 0.00 0.00 0.00 71 1008.5
20260506161546 67 191 3.5 6.1 0.00 0.00 0.00 72 1008.6
20260506160058 66 148 1.7 5.2 0.00 0.00 0.00 76 1008.4
20260506154547 66 155 2.6 5.2 0.00 0.00 0.00 74 1008.3
20260506153043 66 172 3.5 5.2 0.00 0.00 0.00 74 1008.4
20260506151545 66 205 2.6 8.7 0.00 0.00 0.00 73 1008.5
20260506150043 66 125 4.3 7.0 0.00 0.00 0.00 76 1008.3
20260506144543 66 359 0.0 7.0 0.00 0.00 0.00 77 1008.6
20260506143039 65 113 4.3 11.3 0.00 0.00 0.00 80 1008.5
20260506141538 65 160 1.7 8.7 0.00 0.00 0.00 85 1008.5
20260506140038 65 191 5.2 7.8 0.00 0.00 0.00 86 1008.7
20260506134534 64 174 3.5 7.8 0.00 0.00 0.00 88 1009.0
20260506133034 63 139 5.2 9.6 0.00 0.00 0.00 88 1009.3
20260506131545 63 184 3.5 9.6 0.00 0.00 0.00 87 1009.3
20260506130039 63 153 3.5 6.1 0.00 0.00 0.00 87 1009.7
20260506124533 63 180 3.5 8.7 0.00 0.00 0.00 88 1009.7
20260506123032 63 206 2.6 8.7 0.00 0.00 0.00 87 1009.6
20260506121531 64 280 2.6 7.8 0.00 0.00 0.00 89 1009.4
20260506120031 67 283 5.2 10.4 0.00 0.00 0.00 79 1009.4
20260506114529 68 267 3.5 7.0 0.00 0.00 0.00 74 1009.2
20260506113029 68 136 3.5 7.0 0.00 0.00 0.00 75 1009.1
20260506111527 68 203 6.1 11.3 0.00 0.00 0.00 74 1009.1
20260506110026 68 142 7.0 14.8 0.00 0.00 0.00 74 1009.1
20260506104521 67 194 4.3 10.4 0.00 0.00 0.00 81 1009.4
20260506103029 66 185 3.5 13.9 0.00 0.00 0.00 83 1009.2
20260506101514 64 77 3.5 10.4 0.00 0.00 0.00 92 1009.4
20260506100011 63 129 4.3 7.8 0.00 0.00 0.00 95 1009.7
20260506094504 61 134 4.3 7.8 0.00 0.00 0.00 96 1009.9
20260506093004 60 84 5.2 8.7 0.00 0.00 0.00 96 1009.9
20260506091559 60 113 6.1 10.4 0.00 0.00 0.00 97 1009.9
20260506090058 59 103 4.3 7.8 0.00 0.00 0.00 97 1009.9
20260506084557 58 145 2.6 7.8 0.00 0.00 0.00 97 1010.0
20260506083103 58 131 3.5 7.0 0.00 0.00 0.00 97 1010.0
20260506081557 58 102 4.3 8.7 0.00 0.00 0.00 97 1010.0
20260506073052 58 158 2.6 6.1 0.00 0.00 0.00 97 1009.8
20260506071553 57 131 3.5 6.1 0.00 0.00 0.00 97 1009.9
20260506061546 56 120 2.6 5.2 0.00 0.00 0.00 97 1010.2
20260506044541 57 163 2.6 5.2 0.00 0.00 0.00 96 1010.7
20260506043037 57 102 1.7 4.3 0.00 0.00 0.00 95 1010.3
20260506041536 57 188 5.2 10.4 0.00 0.00 0.00 95 1010.8
20260506040034 57 163 7.0 13.9 0.00 0.00 0.00 96 1010.7
20260506034534 57 142 2.6 11.3 0.00 0.00 0.00 96 1010.6
20260506033029 57 149 1.7 6.1 0.00 0.00 0.00 96 1010.4
20260506031527 57 184 2.6 7.0 0.00 0.00 0.00 97 1010.3
20260506030030 58 101 3.5 7.0 0.00 0.00 0.00 97 1010.5
20260506024536 58 113 1.7 4.3 0.00 0.00 0.00 97 1010.7
20260506023020 58 136 3.5 5.2 0.00 0.00 0.00 97 1010.9
20260506021517 58 90 2.6 5.2 0.00 0.00 0.00 97 1011.2
20260506020016 59 50 1.7 4.3 0.00 0.00 0.00 96 1011.1
20260506014518 59 47 1.7 3.5 0.00 0.00 0.00 96 1011.0
20260506013012 59 114 0.0 0.9 0.00 0.00 0.00 96 1011.8
20260506011511 59 336 0.0 0.9 0.00 0.00 0.00 96 1011.8
20260506010011 59 335 0.0 0.9 0.00 0.00 0.00 96 1012.0
20260506004509 59 87 0.0 1.7 0.00 0.00 0.00 96 1011.7
20260506003014 59 100 1.7 3.5 0.00 0.00 0.00 96 1011.3
20260506001506 59 97 1.7 3.5 0.00 0.00 0.00 95 1011.4
20260506000005 59 98 0.0 0.9 0.00 0.00 0.00 95 1011.7
20260505234503 59 134 0.9 5.2 0.00 0.00 0.00 95 1012.1
20260505233002 59 146 1.7 2.6 0.00 0.00 0.00 95 1012.0
20260505231501 59 153 0.0 0.9 0.00 0.00 0.00 95 1012.0
20260505224558 59 15 0.0 0.0 0.00 0.00 0.00 94 1012.1
20260505223058 59 6 0.9 1.7 0.00 0.00 0.00 94 1012.2
20260505221554 59 31 0.0 1.7 0.00 0.00 0.00 94 1012.4
20260505220052 59 49 0.0 1.7 0.00 0.00 0.00 93 1012.5
20260505214551 60 63 0.0 1.7 0.00 0.00 0.00 93 1012.6
20260505213057 60 278 0.0 0.9 0.00 0.00 0.00 92 1012.8
20260505211552 61 335 0.0 0.9 0.00 0.00 0.00 91 1012.8
20260505210049 61 43 0.0 1.7 0.00 0.00 0.00 91 1012.7